Lake Louise, Alberta

4:57 AM MDT on August 24, 2017 (GMT -0600)
Lake Louise

Weather History for 71786 - October, 2012

Change the Weather History Date:

Thursday, October 25, 2012

  Actual Average Record
Temperature  
Mean Temperature 20 °F -  
Max Temperature 25 °F - - ()
Min Temperature 16 °F - - ()
Degree Days  
Heating Degree Days 44    
Moisture  
Dew Point 16 °F    
Average Humidity 80    
Maximum Humidity 91    
Minimum Humidity 64    
Precipitation  
Precipitation 0.00 in - - ()
Sea Level Pressure  
Sea Level Pressure 30.43 in    
Wind  
Wind Speed 6 mph ()    
Max Wind Speed 9 mph    
Max Gust Speed -    
T = Trace of Precipitation, MM = Missing Value Source: Averaged Metar Reports

Daily Weather History Graph

Daily Weather History Graph

Search for Another Location

Airport or City:

Trip Planner

Search our weather history database for the weather conditions in past years. The results will help you decide how hot, cold, wet, or windy it might be!

Date:

Astronomy

Oct. 25, 2012 Rise Set
Actual Time 8:27 AM MDT 6:30 PM MDT
Civil Twilight 7:53 AM MDT 7:04 PM MDT
Nautical Twilight 7:14 AM MDT 7:43 PM MDT
Astronomical Twilight 6:35 AM MDT 8:22 PM MDT
Moon 4:39 PM MDT (10/25) 4:04 AM MDT (10/25)
Length of Visible Light 11h 11m
Length of Day
10h 02m
Waxing Gibbous, 85% of the Moon is Illuminated
Oct 25
Waxing Gibbous
Oct 29
Full
Nov 6
Last Quarter
Nov 13
New
Nov 20
First Quarter

Hourly Weather History & Observations

Time (MDT) Temp. Windchill Dew Point Humidity Pressure Visibility Wind Dir Wind Speed Gust Speed Precip Events Conditions
12:00 AM 18 °F - 15 °F 85% 30.34 in - ENE 6.9 mph - -  
12:00 AM 18.1 °F 8.9 °F 15.4 °F 89% 30.34 in - ENE 6.9 mph - N/A   Unknown
2:00 AM 18.0 °F 6.9 °F 14.9 °F 88% 30.35 in - ENE 9.2 mph - N/A   Unknown
3:00 AM 17.8 °F 7.5 °F 14.7 °F 88% 30.36 in - ENE 8.1 mph - N/A   Unknown
4:00 AM 17.6 °F 8.2 °F 14.5 °F 88% 30.37 in - ENE 6.9 mph - N/A   Unknown
6:00 AM 17 °F - 14 °F 82% 30.39 in - ENE 6.9 mph - -  
9:00 AM 16.5 °F 6.9 °F 12.7 °F 85% 30.45 in - NE 6.9 mph - N/A   Unknown
10:00 AM 17.6 °F 8.2 °F 12.9 °F 82% 30.47 in - ENE 6.9 mph - N/A   Unknown
11:00 AM 18.7 °F 7.8 °F 14.4 °F 83% 30.48 in - NE 9.2 mph - N/A   Unknown
12:00 PM 21 °F - 14 °F 64% 30.48 in - ENE 9.2 mph - -  
12:00 PM 20.7 °F 10.2 °F 14.0 °F 75% 30.48 in - ENE 9.2 mph - N/A   Unknown
1:00 PM 23.4 °F 14.3 °F 15.1 °F 71% 30.46 in - East 8.1 mph - N/A   Unknown
3:00 PM 25.5 °F 16.9 °F 16.3 °F 68% 30.43 in - East 8.1 mph - N/A   Unknown
4:00 PM 25.3 °F 18.5 °F 16.2 °F 68% 30.44 in - ENE 5.8 mph - N/A   Unknown
5:00 PM 25.5 °F 19.9 °F 17.6 °F 72% 30.44 in - East 4.6 mph - N/A   Unknown
6:00 PM 24 °F - 18 °F 68% 30.45 in - East 1.2 mph - -  
6:00 PM 24.4 °F - 17.8 °F 76% 30.45 in - East 1.2 mph - N/A   Unknown
7:00 PM 23.5 °F - 19.2 °F 84% 30.46 in - ENE 2.3 mph - N/A   Unknown
8:00 PM 22.6 °F 18.0 °F 19.0 °F 86% 30.45 in - ENE 3.5 mph - N/A   Unknown
9:00 PM 22.5 °F - 19.0 °F 87% 30.45 in - ENE 2.3 mph - N/A   Unknown
10:00 PM 21.6 °F 14.0 °F 18.7 °F 89% 30.44 in - East 5.8 mph - N/A   Unknown
11:00 PM 20.5 °F 14.0 °F 18.3 °F 91% 30.44 in - ENE 4.6 mph - N/A   Unknown